Location: Perryvale
(54.4667°N, 113.3833°W)
Time: 00:18:07
(UTC+00:00)

SR - Pass Details

Date: 27 May 2024
Orbit: 580 x 858 km, 66.7° (Epoch: 13 June)

Event Time Altitude Azimuth Distance (km) Brightness Sun altitude
Rises 09:54:13 0° 307° (NW) 2,861 ? -8.1°
Reaches altitude 10° 09:57:30 10° 282° (WNW) 1,922 ? -7.9°
Maximum altitude 09:59:37 14° 252° (WSW) 1,684 ? -7.7°
Drops below altitude 10° 10:01:43 10° 222° (SW) 1,896 ? -7.5°
Enters shadow 10:01:53 10° 220° (SW) 1,931 ? -7.5°
